Tracking 21076 objects as of 9-Aug-2020
HD Live streaming from Space Station
objects crossing your sky now
Track the most recent launched group of Starlink satellites

COSMOS 2211

Track COSMOS 2211 now!
10-day predictions
COSMOS 2211 is classified as:


NORAD ID: 22182
Int'l Code: 1992-068A
Perigee: 1,408.3 km
Apogee: 1,418.9 km
Inclination: 82.6 °
Period: 113.9 minutes
Semi major axis: 7784 km
RCS: 1.1084 m2 (large)
Launch date: October 20, 1992
Source: Commonwealth of Independent States (former USSR) (CIS)
Launch site: PLESETSK MISSILE AND SPACE COMPLEX (PKMTR)
aabbcc
Your satellite tracking list
Your tracking list is empty




NASA's NSSDC Master Catalog

Two Line Element Set (TLE):
1 22182U 92068A   20222.55231384  .00000007  00000-0 -21797-4 0  9997
2 22182  82.5920 246.6548 0006853 343.6295 133.2806 12.64001681282860
Source of the keplerian elements: AFSPC